Starlink 36109

operational
NORAD ID: 66943 Int'l Des: 2025-286 Owner: SPXS Country: US Constellation: starlink
LEOCIRCULAR

Über Starlink 36109

Beschreibung wird geladen...

Live-Position

3D-Globus wird geladen...

Nächste Überflüge

Höhenverlauf

Altitude vs Time

uPlot chart will show altitude changes over time

Zweizeiliger Elementsatz

1 66943U 25286U 25347.58336806 -.01283832 50556-3 -29244-2 0 9997
2 66943 53.1566 46.3952 0000701 63.9887 241.8093 15.96830982 2059
Epoch: 13. Dez. 2025 • Age: 16 hours

Aktueller Status

Höhe 291.4 km
Geschwindigkeit 7.73 km/s
Subsatellitenpunkt -11.91°S, 57.8°E
Startdatum 7. Dez. 2025
Alter 6 days
Typ internet

Technische Details

Klassifizierung Payload
Masse 575.00 kg
Trockenmasse 530.00 kg
Gesamtmasse 575.00 kg
Länge 0.30 m
Durchmesser 4.10 m
Spannweite 29.00 m
Form Box + pan
Hersteller SPXS
Bus-Typ Starlink V2MO
Phasenstatus In Orbit
Besitzer/Staat SPXS/US

Große Konstellationen

Loading constellations...